Location: Brodeslavy
(49.9527°N, 13.5567°E)
Time: 05:21:51
(UTC+00:00)

Cosmos 407 Rocket - Pass Details

Date: 17 June 2025
Orbit: 740 x 781 km, 74.0° (Epoch: 12 July)

Event Time Altitude Azimuth Distance (km) Brightness Sun altitude
Exits shadow 20:53:44 14° 159° (SSE) 1,970 5.0 -10.9°
Maximum altitude 20:57:23 33° 102° (ESE) 1,247 4.3 -11.2°
Drops below altitude 10° 21:01:54 10° 40° (NE) 2,260 6.2 -11.6°
Sets 21:04:26 0° 31° (NNE) 3,188 7.2 -11.8°
